星链-4078 (STARLINK-4078 )

导读

STARLINK-4078是美国SpaceX公司“星链”卫星互联网星座的一员,于2022年5月18日发射升空。属于星链第一代V1.5批次卫星,运行在近地轨道,配备氪离子推进器和相控阵通信天线,可提供全球低延迟宽带互联网接入服务,具备自主轨道调整和碰撞规避能力,单星设计寿命约5年,服务地面用户高速互联网接入,是星链全球星座组网的重要组成部分。

基本信息
目录编号:
52689
目录名称:
STARLINK-4078
国际标识:
2022-053AK
轨道中心:
EARTH
卫星名称:
星链-4078
卫星全名:
星链-4078 (STARLINK-4078 )
卫星状态:
已陨落 最后检测时间 2026-08-06
发射日期:
2022-05-18 UTC
国别 :
美国 (US)
星等 :
--
该卫星已列入 空间交会检测服务 Space Conjunction Data Service (SCDS) ,当前飞行风险评估等级: 无高风险
轨道信息
数据来源 国际轨道数据
星历时间: 2026-08-05T08:59:09+0800
轨道信息已过期38天
半长轴: 6583.741km
偏心率: 0.0013855
轨道倾角: 53.190°
近地点辐角 259.328°
升交点赤经 72.175°
平近点角 100.620°
近地点: 196.482km
远地点: 214.726km
周期: 88.607分钟
每日圈数: 16.25151
详细信息
固有亮度:
5
最大亮度:
2.5
卫星平台:
Starlink v1.5
覆盖范围:
全球
运营商:
太空探索技术公司
运营商所在国:
美国
制造商(研发单位):
太空探索技术公司
制造商所在国:
美国
使用方式:
暂无
卫星简介
星链(Starlink)计划是由太空探索技术公司(SpaceX)提出的一个巨型低轨卫星互联网星座项目,计划在2019年至2024年间在太空搭建由约1.2万颗卫星组成的“星链”网络,其中1584颗将部署在地球上空550千米处的近地轨道,并从2020年开始工作。该卫星仍在工作。
与全量物体交会距离演化趋势
与全量物体交会风险概率演化趋势